contact:dominique.lefevre@mio.osupytheas.fr, maurice.libes@osupytheas.fr, didier.mallarino@osupytheas.fr
Project:EMSO http://www.emso-fr.org/EMSO-France
Depth: 2436.0 m
Title:EMSO Ligure Ouest : Data MII capteur MICROCAT
DateTime_Computer,Latitude,Longitude,Temperature,Conductivity,Pressure,DateTime_Instrument
DateTime_Computer,Latitude,Longitude,degC,S m-1,dbar,DateTime_Instrument
2020-10-29T00:00:16Z,42.805,6.029,13.2985,4.59997,2470.087,2020-10-29T02:01:11Z
2020-10-29T00:03:19Z,42.805,6.029,13.2982,4.59993,2470.063,2020-10-29T02:04:14Z
2020-10-29T00:06:22Z,42.805,6.029,13.2983,4.59995,2470.077,2020-10-29T02:07:17Z
2020-10-29T00:09:25Z,42.805,6.029,13.2991,4.60015,2470.063,2020-10-29T02:10:20Z
2020-10-29T00:12:28Z,42.805,6.029,13.2989,4.60013,2470.1,2020-10-29T02:13:23Z
2020-10-29T00:15:31Z,42.805,6.029,13.2989,4.60006,2470.124,2020-10-29T02:16:27Z
2020-10-29T00:18:35Z,42.805,6.029,13.2990,4.59996,2470.063,2020-10-29T02:19:30Z
2020-10-29T00:21:38Z,42.805,6.029,13.2980,4.60003,2470.087,2020-10-29T02:22:33Z
2020-10-29T00:24:41Z,42.805,6.029,13.2986,4.60009,2470.11,2020-10-29T02:25:36Z
2020-10-29T00:27:44Z,42.805,6.029,13.2981,4.60006,2470.087,2020-10-29T02:28:39Z
2020-10-29T00:30:47Z,42.805,6.029,13.2995,4.60003,2470.087,2020-10-29T02:31:42Z
2020-10-29T00:33:50Z,42.805,6.029,13.2989,4.60008,2470.077,2020-10-29T02:34:45Z
2020-10-29T00:36:53Z,42.805,6.029,13.2977,4.59996,2470.1,2020-10-29T02:37:48Z
2020-10-29T00:39:56Z,42.805,6.029,13.2982,4.59996,2470.087,2020-10-29T02:40:52Z
2020-10-29T00:43:00Z,42.805,6.029,13.2991,4.59998,2470.087,2020-10-29T02:43:55Z
2020-10-29T00:46:03Z,42.805,6.029,13.3003,4.60006,2470.077,2020-10-29T02:46:58Z
2020-10-29T00:49:06Z,42.805,6.029,13.2983,4.59990,2470.063,2020-10-29T02:50:01Z
2020-10-29T00:52:09Z,42.805,6.029,13.2990,4.60004,2470.11,2020-10-29T02:53:04Z
2020-10-29T00:55:12Z,42.805,6.029,13.2998,4.60011,2470.1,2020-10-29T02:56:07Z
2020-10-29T00:58:15Z,42.805,6.029,13.2982,4.59996,2470.124,2020-10-29T02:59:10Z
2020-10-29T01:01:18Z,42.805,6.029,13.2991,4.60011,2470.087,2020-10-29T03:02:13Z
2020-10-29T01:04:21Z,42.805,6.029,13.2986,4.60004,2470.063,2020-10-29T03:05:17Z
2020-10-29T01:07:24Z,42.805,6.029,13.2979,4.59997,2470.124,2020-10-29T03:08:20Z
2020-10-29T01:10:28Z,42.805,6.029,13.2990,4.60011,2470.1,2020-10-29T03:11:23Z
2020-10-29T01:13:31Z,42.805,6.029,13.2983,4.60013,2470.087,2020-10-29T03:14:26Z
2020-10-29T01:16:34Z,42.805,6.029,13.2996,4.60017,2470.063,2020-10-29T03:17:29Z
2020-10-29T01:19:37Z,42.805,6.029,13.2992,4.60018,2470.11,2020-10-29T03:20:32Z
2020-10-29T01:22:40Z,42.805,6.029,13.2993,4.60022,2470.147,2020-10-29T03:23:35Z
2020-10-29T01:25:43Z,42.805,6.029,13.2992,4.60016,2470.063,2020-10-29T03:26:38Z
2020-10-29T01:28:46Z,42.805,6.029,13.2998,4.60025,2470.087,2020-10-29T03:29:41Z
2020-10-29T01:31:49Z,42.805,6.029,13.2993,4.60000,2470.124,2020-10-29T03:32:45Z
2020-10-29T01:34:53Z,42.805,6.029,13.2996,4.60014,2470.11,2020-10-29T03:35:48Z
2020-10-29T01:37:56Z,42.805,6.029,13.2994,4.60019,2470.063,2020-10-29T03:38:51Z
2020-10-29T01:40:59Z,42.805,6.029,13.2991,4.60011,2470.147,2020-10-29T03:41:54Z
2020-10-29T01:44:02Z,42.805,6.029,13.2982,4.60012,2470.11,2020-10-29T03:44:57Z
2020-10-29T01:47:05Z,42.805,6.029,13.2986,4.59989,2470.087,2020-10-29T03:48:00Z
2020-10-29T01:50:08Z,42.805,6.029,13.2984,4.59991,2470.11,2020-10-29T03:51:03Z
2020-10-29T01:53:11Z,42.805,6.029,13.2984,4.60002,2470.11,2020-10-29T03:54:06Z
2020-10-29T01:56:14Z,42.805,6.029,13.2993,4.60029,2470.124,2020-10-29T03:57:10Z
2020-10-29T01:59:18Z,42.805,6.029,13.2986,4.60011,2470.124,2020-10-29T04:00:13Z
2020-10-29T02:02:21Z,42.805,6.029,13.2984,4.60009,2470.11,2020-10-29T04:03:16Z
2020-10-29T02:05:24Z,42.805,6.029,13.2985,4.59994,2470.124,2020-10-29T04:06:19Z
2020-10-29T02:08:27Z,42.805,6.029,13.2989,4.60015,2470.124,2020-10-29T04:09:22Z
2020-10-29T02:11:30Z,42.805,6.029,13.2996,4.60025,2470.11,2020-10-29T04:12:25Z
2020-10-29T02:14:33Z,42.805,6.029,13.3003,4.60024,2470.11,2020-10-29T04:15:28Z
2020-10-29T02:17:36Z,42.805,6.029,13.2989,4.60007,2470.147,2020-10-29T04:18:31Z
2020-10-29T02:20:39Z,42.805,6.029,13.2982,4.59998,2470.11,2020-10-29T04:21:35Z
2020-10-29T02:23:43Z,42.805,6.029,13.2985,4.59996,2470.11,2020-10-29T04:24:38Z
2020-10-29T02:26:46Z,42.805,6.029,13.2987,4.60009,2470.124,2020-10-29T04:27:41Z
2020-10-29T02:29:49Z,42.805,6.029,13.2989,4.60006,2470.133,2020-10-29T04:30:44Z
2020-10-29T02:32:52Z,42.805,6.029,13.2982,4.59996,2470.133,2020-10-29T04:33:47Z
2020-10-29T02:35:55Z,42.805,6.029,13.2979,4.59996,2470.147,2020-10-29T04:36:50Z
2020-10-29T02:38:58Z,42.805,6.029,13.2993,4.60003,2470.147,2020-10-29T04:39:53Z
2020-10-29T02:42:01Z,42.805,6.029,13.2990,4.60006,2470.171,2020-10-29T04:42:56Z
2020-10-29T02:45:04Z,42.805,6.029,13.2994,4.60025,2470.133,2020-10-29T04:46:00Z
2020-10-29T02:48:08Z,42.805,6.029,13.2996,4.60017,2470.147,2020-10-29T04:49:03Z
2020-10-29T02:51:11Z,42.805,6.029,13.2980,4.59996,2470.133,2020-10-29T04:52:06Z
2020-10-29T02:54:14Z,42.805,6.029,13.2986,4.59995,2470.147,2020-10-29T04:55:09Z
2020-10-29T02:57:17Z,42.805,6.029,13.2992,4.60003,2470.147,2020-10-29T04:58:12Z
2020-10-29T03:00:20Z,42.805,6.029,13.2984,4.60003,2470.18,2020-10-29T05:01:15Z
2020-10-29T03:03:23Z,42.805,6.029,13.2982,4.59996,2470.171,2020-10-29T05:04:18Z
2020-10-29T03:06:26Z,42.805,6.029,13.2989,4.60004,2470.156,2020-10-29T05:07:21Z
2020-10-29T03:09:29Z,42.805,6.029,13.2998,4.60025,2470.156,2020-10-29T05:10:25Z
2020-10-29T03:12:33Z,42.805,6.029,13.2992,4.60008,2470.147,2020-10-29T05:13:28Z
2020-10-29T03:15:36Z,42.805,6.029,13.2983,4.60006,2470.156,2020-10-29T05:16:31Z
2020-10-29T03:18:39Z,42.805,6.029,13.2996,4.60017,2470.156,2020-10-29T05:19:34Z
2020-10-29T03:21:42Z,42.805,6.029,13.2993,4.60005,2470.147,2020-10-29T05:22:37Z
2020-10-29T03:24:45Z,42.805,6.029,13.2983,4.59996,2470.133,2020-10-29T05:25:40Z
2020-10-29T03:27:48Z,42.805,6.029,13.2984,4.59995,2470.156,2020-10-29T05:28:43Z
2020-10-29T03:30:51Z,42.805,6.029,13.2985,4.59995,2470.194,2020-10-29T05:31:46Z
2020-10-29T03:33:54Z,42.805,6.029,13.2988,4.59999,2470.194,2020-10-29T05:34:50Z
2020-10-29T03:36:58Z,42.805,6.029,13.2982,4.59996,2470.18,2020-10-29T05:37:53Z
2020-10-29T03:40:01Z,42.805,6.029,13.2981,4.59999,2470.166,2020-10-29T05:40:56Z
2020-10-29T03:43:04Z,42.805,6.029,13.2986,4.60001,2470.171,2020-10-29T05:43:59Z
2020-10-29T03:46:07Z,42.805,6.029,13.2991,4.60021,2470.156,2020-10-29T05:47:02Z
2020-10-29T03:49:10Z,42.805,6.029,13.2986,4.59996,2470.18,2020-10-29T05:50:05Z
2020-10-29T03:52:13Z,42.805,6.029,13.3000,4.60006,2470.18,2020-10-29T05:53:08Z
2020-10-29T03:55:16Z,42.805,6.029,13.2986,4.59999,2470.156,2020-10-29T05:56:11Z
2020-10-29T03:58:19Z,42.805,6.029,13.2997,4.60001,2470.18,2020-10-29T05:59:15Z
2020-10-29T04:01:23Z,42.805,6.029,13.2983,4.59994,2470.194,2020-10-29T06:02:18Z
2020-10-29T04:04:26Z,42.805,6.029,13.2980,4.59996,2470.203,2020-10-29T06:05:21Z
2020-10-29T04:07:29Z,42.805,6.029,13.2983,4.59996,2470.203,2020-10-29T06:08:24Z
2020-10-29T04:10:32Z,42.805,6.029,13.2983,4.59998,2470.194,2020-10-29T06:11:27Z
2020-10-29T04:13:35Z,42.805,6.029,13.2983,4.59999,2470.217,2020-10-29T06:14:30Z
2020-10-29T04:16:38Z,42.805,6.029,13.2982,4.59996,2470.203,2020-10-29T06:17:33Z
2020-10-29T04:19:41Z,42.805,6.029,13.2993,4.60010,2470.203,2020-10-29T06:20:36Z
2020-10-29T04:22:44Z,42.805,6.029,13.2996,4.60006,2470.25,2020-10-29T06:23:39Z
2020-10-29T04:25:47Z,42.805,6.029,13.2990,4.60012,2470.203,2020-10-29T06:26:43Z
2020-10-29T04:28:51Z,42.805,6.029,13.2993,4.60011,2470.203,2020-10-29T06:29:46Z
2020-10-29T04:31:54Z,42.805,6.029,13.2986,4.60001,2470.217,2020-10-29T06:32:49Z
2020-10-29T04:34:57Z,42.805,6.029,13.2982,4.59995,2470.203,2020-10-29T06:35:52Z
2020-10-29T04:38:00Z,42.805,6.029,13.2981,4.59995,2470.24,2020-10-29T06:38:55Z
2020-10-29T04:41:03Z,42.805,6.029,13.2986,4.59999,2470.217,2020-10-29T06:41:58Z
2020-10-29T04:44:06Z,42.805,6.029,13.2986,4.60021,2470.25,2020-10-29T06:45:01Z
2020-10-29T04:47:09Z,42.805,6.029,13.2992,4.60011,2470.227,2020-10-29T06:48:04Z
2020-10-29T04:50:12Z,42.805,6.029,13.2987,4.60020,2470.203,2020-10-29T06:51:08Z
2020-10-29T04:53:16Z,42.805,6.029,13.2998,4.60013,2470.24,2020-10-29T06:54:11Z
2020-10-29T04:56:19Z,42.805,6.029,13.2993,4.60019,2470.227,2020-10-29T06:57:14Z
2020-10-29T04:59:22Z,42.805,6.029,13.2996,4.60019,2470.203,2020-10-29T07:00:17Z
2020-10-29T05:02:25Z,42.805,6.029,13.2983,4.60004,2470.217,2020-10-29T07:03:20Z
2020-10-29T05:05:28Z,42.805,6.029,13.2992,4.60019,2470.227,2020-10-29T07:06:23Z
2020-10-29T05:08:31Z,42.805,6.029,13.2985,4.60007,2470.203,2020-10-29T07:09:26Z
2020-10-29T05:11:34Z,42.805,6.029,13.2990,4.60019,2470.227,2020-10-29T07:12:29Z
2020-10-29T05:14:37Z,42.805,6.029,13.3001,4.60017,2470.24,2020-10-29T07:15:33Z
2020-10-29T05:17:41Z,42.805,6.029,13.2990,4.60011,2470.25,2020-10-29T07:18:36Z
2020-10-29T05:20:44Z,42.805,6.029,13.2982,4.60003,2470.25,2020-10-29T07:21:39Z
2020-10-29T05:23:47Z,42.805,6.029,13.2984,4.59994,2470.273,2020-10-29T07:24:42Z
2020-10-29T05:26:50Z,42.805,6.029,13.2982,4.59996,2470.227,2020-10-29T07:27:45Z
2020-10-29T05:29:53Z,42.805,6.029,13.2983,4.59998,2470.203,2020-10-29T07:30:48Z
2020-10-29T05:32:56Z,42.805,6.029,13.2983,4.59998,2470.264,2020-10-29T07:33:51Z
2020-10-29T05:35:59Z,42.805,6.029,13.2980,4.59991,2470.25,2020-10-29T07:36:54Z
2020-10-29T05:39:02Z,42.805,6.029,13.2985,4.60006,2470.25,2020-10-29T07:39:58Z
2020-10-29T05:42:05Z,42.805,6.029,13.3004,4.60006,2470.227,2020-10-29T07:43:01Z
2020-10-29T05:45:09Z,42.805,6.029,13.2986,4.60003,2470.227,2020-10-29T07:46:04Z
2020-10-29T05:48:12Z,42.805,6.029,13.2980,4.59999,2470.24,2020-10-29T07:49:07Z
2020-10-29T05:51:15Z,42.805,6.029,13.2983,4.59995,2470.24,2020-10-29T07:52:10Z
2020-10-29T05:54:18Z,42.805,6.029,13.2989,4.60009,2470.25,2020-10-29T07:55:13Z
2020-10-29T05:57:21Z,42.805,6.029,13.2998,4.60014,2470.25,2020-10-29T07:58:16Z
2020-10-29T06:00:24Z,42.805,6.029,13.2983,4.60001,2470.227,2020-10-29T08:01:19Z
2020-10-29T06:03:27Z,42.805,6.029,13.2989,4.60013,2470.25,2020-10-29T08:04:22Z
2020-10-29T06:06:30Z,42.805,6.029,13.2984,4.60001,2470.24,2020-10-29T08:07:26Z
2020-10-29T06:09:34Z,42.805,6.029,13.2994,4.59995,2470.227,2020-10-29T08:10:29Z
2020-10-29T06:12:37Z,42.805,6.029,13.2986,4.59996,2470.24,2020-10-29T08:13:32Z
2020-10-29T06:15:40Z,42.805,6.029,13.2991,4.60006,2470.25,2020-10-29T08:16:35Z
2020-10-29T06:18:43Z,42.805,6.029,13.2987,4.60003,2470.24,2020-10-29T08:19:38Z
2020-10-29T06:21:46Z,42.805,6.029,13.2988,4.59999,2470.24,2020-10-29T08:22:41Z
2020-10-29T06:24:49Z,42.805,6.029,13.2982,4.59998,2470.24,2020-10-29T08:25:44Z
2020-10-29T06:27:52Z,42.805,6.029,13.2985,4.60008,2470.24,2020-10-29T08:28:47Z
2020-10-29T06:30:55Z,42.805,6.029,13.2983,4.60016,2470.227,2020-10-29T08:31:51Z
2020-10-29T06:33:59Z,42.805,6.029,13.2990,4.60014,2470.25,2020-10-29T08:34:54Z
2020-10-29T06:37:02Z,42.805,6.029,13.2990,4.60007,2470.24,2020-10-29T08:37:57Z
2020-10-29T06:40:05Z,42.805,6.029,13.2988,4.60021,2470.25,2020-10-29T08:41:00Z
2020-10-29T06:43:08Z,42.805,6.029,13.2991,4.60014,2470.227,2020-10-29T08:44:03Z
2020-10-29T06:46:11Z,42.805,6.029,13.2983,4.60010,2470.203,2020-10-29T08:47:06Z
2020-10-29T06:49:14Z,42.805,6.029,13.2990,4.60007,2470.227,2020-10-29T08:50:09Z
2020-10-29T06:52:17Z,42.805,6.029,13.2986,4.59993,2470.227,2020-10-29T08:53:12Z
2020-10-29T06:55:20Z,42.805,6.029,13.2981,4.60013,2470.227,2020-10-29T08:56:16Z
2020-10-29T06:58:24Z,42.805,6.029,13.2995,4.60014,2470.25,2020-10-29T08:59:19Z
2020-10-29T07:01:27Z,42.805,6.029,13.2982,4.59999,2470.217,2020-10-29T09:02:22Z
2020-10-29T07:04:30Z,42.805,6.029,13.2982,4.59993,2470.24,2020-10-29T09:05:25Z
2020-10-29T07:07:33Z,42.805,6.029,13.2989,4.60011,2470.203,2020-10-29T09:08:28Z
2020-10-29T07:10:36Z,42.805,6.029,13.2986,4.59998,2470.227,2020-10-29T09:11:31Z
2020-10-29T07:13:39Z,42.805,6.029,13.2990,4.60009,2470.217,2020-10-29T09:14:34Z
2020-10-29T07:16:42Z,42.805,6.029,13.2983,4.59997,2470.203,2020-10-29T09:17:37Z
2020-10-29T07:19:45Z,42.805,6.029,13.2983,4.59995,2470.217,2020-10-29T09:20:41Z
2020-10-29T07:22:48Z,42.805,6.029,13.2989,4.60001,2470.24,2020-10-29T09:23:44Z
2020-10-29T07:25:52Z,42.805,6.029,13.2983,4.59995,2470.217,2020-10-29T09:26:47Z
2020-10-29T07:28:55Z,42.805,6.029,13.2980,4.59996,2470.203,2020-10-29T09:29:50Z
2020-10-29T07:31:58Z,42.805,6.029,13.2981,4.59991,2470.24,2020-10-29T09:32:53Z
2020-10-29T07:35:01Z,42.805,6.029,13.2983,4.59991,2470.227,2020-10-29T09:35:56Z
2020-10-29T07:38:04Z,42.805,6.029,13.2983,4.59994,2470.227,2020-10-29T09:38:59Z
2020-10-29T07:41:07Z,42.805,6.029,13.3000,4.60010,2470.227,2020-10-29T09:42:02Z
2020-10-29T07:44:10Z,42.805,6.029,13.2986,4.60007,2470.24,2020-10-29T09:45:06Z
2020-10-29T07:47:13Z,42.805,6.029,13.2990,4.60011,2470.227,2020-10-29T09:48:09Z
2020-10-29T07:50:17Z,42.805,6.029,13.2980,4.59999,2470.203,2020-10-29T09:51:12Z
2020-10-29T07:53:20Z,42.805,6.029,13.2983,4.59998,2470.18,2020-10-29T09:54:15Z
2020-10-29T07:56:23Z,42.805,6.029,13.2991,4.60016,2470.203,2020-10-29T09:57:18Z
2020-10-29T07:59:26Z,42.805,6.029,13.2983,4.60017,2470.217,2020-10-29T10:00:21Z
2020-10-29T08:02:29Z,42.805,6.029,13.2986,4.59999,2470.227,2020-10-29T10:03:24Z
2020-10-29T08:05:32Z,42.805,6.029,13.2987,4.60014,2470.227,2020-10-29T10:06:27Z
2020-10-29T08:08:35Z,42.805,6.029,13.2981,4.59995,2470.203,2020-10-29T10:09:30Z
2020-10-29T08:11:38Z,42.805,6.029,13.2983,4.59996,2470.203,2020-10-29T10:12:34Z
2020-10-29T08:14:42Z,42.805,6.029,13.2992,4.60016,2470.217,2020-10-29T10:15:37Z
2020-10-29T08:17:45Z,42.805,6.029,13.2991,4.60015,2470.203,2020-10-29T10:18:40Z
2020-10-29T08:20:48Z,42.805,6.029,13.2991,4.60019,2470.18,2020-10-29T10:21:43Z
2020-10-29T08:23:51Z,42.805,6.029,13.2998,4.60014,2470.227,2020-10-29T10:24:46Z
2020-10-29T08:26:54Z,42.805,6.029,13.2983,4.59998,2470.217,2020-10-29T10:27:49Z
2020-10-29T08:29:57Z,42.805,6.029,13.2982,4.59998,2470.194,2020-10-29T10:30:52Z
2020-10-29T08:33:00Z,42.805,6.029,13.2996,4.60004,2470.171,2020-10-29T10:33:56Z
2020-10-29T08:36:03Z,42.805,6.029,13.2996,4.60011,2470.156,2020-10-29T10:36:59Z
2020-10-29T08:39:07Z,42.805,6.029,13.2986,4.60003,2470.203,2020-10-29T10:40:02Z
2020-10-29T08:42:10Z,42.805,6.029,13.2991,4.60007,2470.189,2020-10-29T10:43:05Z
2020-10-29T08:45:13Z,42.805,6.029,13.2988,4.60012,2470.217,2020-10-29T10:46:08Z
2020-10-29T08:48:16Z,42.805,6.029,13.2990,4.60007,2470.171,2020-10-29T10:49:11Z
2020-10-29T08:51:19Z,42.805,6.029,13.2993,4.60012,2470.156,2020-10-29T10:52:14Z
2020-10-29T08:54:22Z,42.805,6.029,13.2989,4.60013,2470.156,2020-10-29T10:55:17Z
2020-10-29T08:57:25Z,42.805,6.029,13.2986,4.60015,2470.18,2020-10-29T10:58:21Z
2020-10-29T09:00:29Z,42.805,6.029,13.2989,4.60004,2470.156,2020-10-29T11:01:24Z
2020-10-29T09:03:32Z,42.805,6.029,13.2987,4.60005,2470.203,2020-10-29T11:04:27Z
2020-10-29T09:06:35Z,42.805,6.029,13.2992,4.60008,2470.217,2020-10-29T11:07:30Z
2020-10-29T09:09:38Z,42.805,6.029,13.2992,4.60012,2470.203,2020-10-29T11:10:33Z
2020-10-29T09:12:41Z,42.805,6.029,13.2990,4.59993,2470.18,2020-10-29T11:13:36Z
2020-10-29T09:15:44Z,42.805,6.029,13.2991,4.60000,2470.18,2020-10-29T11:16:39Z
2020-10-29T09:18:47Z,42.805,6.029,13.2983,4.59994,2470.171,2020-10-29T11:19:42Z
2020-10-29T09:21:50Z,42.805,6.029,13.2983,4.60013,2470.18,2020-10-29T11:22:46Z
2020-10-29T09:24:54Z,42.805,6.029,13.2982,4.59988,2470.171,2020-10-29T11:25:49Z
2020-10-29T09:27:57Z,42.805,6.029,13.2982,4.59989,2470.156,2020-10-29T11:28:52Z
2020-10-29T09:31:00Z,42.805,6.029,13.2985,4.59995,2470.194,2020-10-29T11:31:55Z
2020-10-29T09:34:03Z,42.805,6.029,13.2992,4.59997,2470.18,2020-10-29T11:34:58Z
2020-10-29T09:37:06Z,42.805,6.029,13.2986,4.60006,2470.203,2020-10-29T11:38:01Z
2020-10-29T09:40:09Z,42.805,6.029,13.2987,4.60005,2470.18,2020-10-29T11:41:04Z
2020-10-29T09:43:12Z,42.805,6.029,13.2982,4.59996,2470.156,2020-10-29T11:44:07Z
2020-10-29T09:46:15Z,42.805,6.029,13.2986,4.60010,2470.18,2020-10-29T11:47:11Z
2020-10-29T09:49:19Z,42.805,6.029,13.2996,4.60015,2470.18,2020-10-29T11:50:14Z
2020-10-29T09:52:22Z,42.805,6.029,13.2984,4.59990,2470.156,2020-10-29T11:53:17Z
2020-10-29T09:55:25Z,42.805,6.029,13.2991,4.59994,2470.147,2020-10-29T11:56:20Z
2020-10-29T09:58:28Z,42.805,6.029,13.2987,4.59998,2470.156,2020-10-29T11:59:23Z
2020-10-29T10:01:31Z,42.805,6.029,13.2999,4.60014,2470.217,2020-10-29T12:02:26Z
2020-10-29T10:04:34Z,42.805,6.029,13.2996,4.60016,2470.171,2020-10-29T12:05:29Z
2020-10-29T10:07:37Z,42.805,6.029,13.2989,4.60012,2470.171,2020-10-29T12:08:33Z
2020-10-29T10:10:40Z,42.805,6.029,13.3000,4.60013,2470.147,2020-10-29T12:11:36Z
2020-10-29T10:13:44Z,42.805,6.029,13.2982,4.59993,2470.171,2020-10-29T12:14:39Z
2020-10-29T10:16:47Z,42.805,6.029,13.2992,4.59999,2470.133,2020-10-29T12:17:42Z
2020-10-29T10:19:50Z,42.805,6.029,13.2983,4.59995,2470.147,2020-10-29T12:20:45Z
2020-10-29T10:22:53Z,42.805,6.029,13.2982,4.59996,2470.133,2020-10-29T12:23:48Z
2020-10-29T10:25:56Z,42.805,6.029,13.2984,4.59997,2470.133,2020-10-29T12:26:51Z
2020-10-29T10:28:59Z,42.805,6.029,13.2981,4.59995,2470.124,2020-10-29T12:29:54Z
2020-10-29T10:32:02Z,42.805,6.029,13.2984,4.59993,2470.133,2020-10-29T12:32:58Z
2020-10-29T10:35:06Z,42.805,6.029,13.2992,4.60006,2470.156,2020-10-29T12:36:01Z
2020-10-29T10:38:09Z,42.805,6.029,13.2998,4.60017,2470.147,2020-10-29T12:39:04Z
2020-10-29T10:41:12Z,42.805,6.029,13.2992,4.60008,2470.133,2020-10-29T12:42:07Z
2020-10-29T10:44:15Z,42.805,6.029,13.2991,4.59995,2470.147,2020-10-29T12:45:10Z
2020-10-29T10:47:18Z,42.805,6.029,13.2976,4.59989,2470.133,2020-10-29T12:48:13Z
2020-10-29T10:50:21Z,42.805,6.029,13.2995,4.60011,2470.11,2020-10-29T12:51:16Z
2020-10-29T10:53:24Z,42.805,6.029,13.3000,4.60020,2470.133,2020-10-29T12:54:19Z
2020-10-29T10:56:27Z,42.805,6.029,13.2990,4.60025,2470.194,2020-10-29T12:57:23Z
2020-10-29T10:59:31Z,42.805,6.029,13.2993,4.60015,2470.133,2020-10-29T13:00:26Z
2020-10-29T11:02:34Z,42.805,6.029,13.2987,4.60016,2470.11,2020-10-29T13:03:29Z
2020-10-29T11:05:37Z,42.805,6.029,13.2993,4.60011,2470.124,2020-10-29T13:06:32Z
2020-10-29T11:08:40Z,42.805,6.029,13.2993,4.60004,2470.11,2020-10-29T13:09:35Z
2020-10-29T11:11:43Z,42.805,6.029,13.2981,4.59999,2470.156,2020-10-29T13:12:38Z
2020-10-29T11:14:46Z,42.805,6.029,13.2993,4.60014,2470.124,2020-10-29T13:15:41Z
2020-10-29T11:17:49Z,42.805,6.029,13.2995,4.60013,2470.133,2020-10-29T13:18:44Z
2020-10-29T11:20:52Z,42.805,6.029,13.2984,4.60003,2470.11,2020-10-29T13:21:48Z
2020-10-29T11:23:56Z,42.805,6.029,13.2986,4.60006,2470.087,2020-10-29T13:24:51Z
2020-10-29T11:26:59Z,42.805,6.029,13.2987,4.60017,2470.11,2020-10-29T13:27:54Z
2020-10-29T11:30:02Z,42.805,6.029,13.2989,4.60020,2470.11,2020-10-29T13:30:57Z
2020-10-29T11:33:05Z,42.805,6.029,13.3007,4.60016,2470.11,2020-10-29T13:34:00Z
2020-10-29T11:36:08Z,42.805,6.029,13.2986,4.60028,2470.133,2020-10-29T13:37:03Z
2020-10-29T11:39:11Z,42.805,6.029,13.2994,4.60021,2470.11,2020-10-29T13:40:06Z
2020-10-29T11:42:14Z,42.805,6.029,13.2994,4.60029,2470.087,2020-10-29T13:43:09Z
2020-10-29T11:45:17Z,42.805,6.029,13.2981,4.59998,2470.124,2020-10-29T13:46:13Z
2020-10-29T11:48:21Z,42.805,6.029,13.2982,4.59992,2470.077,2020-10-29T13:49:16Z
2020-10-29T11:51:24Z,42.805,6.029,13.2983,4.60022,2470.11,2020-10-29T13:52:19Z
2020-10-29T11:54:27Z,42.805,6.029,13.2996,4.60020,2470.11,2020-10-29T13:55:22Z
2020-10-29T11:57:30Z,42.805,6.029,13.2989,4.60019,2470.124,2020-10-29T13:58:25Z
2020-10-29T12:00:33Z,42.805,6.029,13.2979,4.60003,2470.087,2020-10-29T14:01:28Z
2020-10-29T12:03:36Z,42.805,6.029,13.2991,4.60014,2470.1,2020-10-29T14:04:31Z
2020-10-29T12:06:39Z,42.805,6.029,13.2984,4.59997,2470.087,2020-10-29T14:07:34Z
2020-10-29T12:09:42Z,42.805,6.029,13.2982,4.60001,2470.124,2020-10-29T14:10:38Z
2020-10-29T12:12:46Z,42.805,6.029,13.2990,4.60014,2470.1,2020-10-29T14:13:41Z
2020-10-29T12:15:49Z,42.805,6.029,13.2991,4.60011,2470.11,2020-10-29T14:16:44Z
2020-10-29T12:18:52Z,42.805,6.029,13.2997,4.60019,2470.087,2020-10-29T14:19:47Z
2020-10-29T12:21:55Z,42.805,6.029,13.2991,4.60005,2470.087,2020-10-29T14:22:50Z
2020-10-29T12:24:58Z,42.805,6.029,13.2982,4.59992,2470.1,2020-10-29T14:25:53Z
2020-10-29T12:28:01Z,42.805,6.029,13.2988,4.60004,2470.11,2020-10-29T14:28:56Z
2020-10-29T12:31:04Z,42.805,6.029,13.2990,4.59993,2470.11,2020-10-29T14:32:00Z
2020-10-29T12:34:07Z,42.805,6.029,13.2982,4.59991,2470.087,2020-10-29T14:35:03Z
2020-10-29T12:37:11Z,42.805,6.029,13.2994,4.60007,2470.087,2020-10-29T14:38:06Z
2020-10-29T12:40:14Z,42.805,6.029,13.2991,4.60021,2470.133,2020-10-29T14:41:09Z
2020-10-29T12:43:17Z,42.805,6.029,13.2982,4.60008,2470.087,2020-10-29T14:44:12Z
2020-10-29T12:46:20Z,42.805,6.029,13.2985,4.60002,2470.124,2020-10-29T14:47:15Z
2020-10-29T12:49:23Z,42.805,6.029,13.2983,4.59997,2470.124,2020-10-29T14:50:18Z
2020-10-29T12:52:26Z,42.805,6.029,13.2991,4.60009,2470.124,2020-10-29T14:53:21Z
2020-10-29T12:55:29Z,42.805,6.029,13.2993,4.60010,2470.11,2020-10-29T14:56:25Z
2020-10-29T12:58:33Z,42.805,6.029,13.3013,4.60011,2470.11,2020-10-29T14:59:28Z
2020-10-29T13:01:36Z,42.805,6.029,13.2993,4.60021,2470.124,2020-10-29T15:02:31Z
2020-10-29T13:04:39Z,42.805,6.029,13.2994,4.60024,2470.077,2020-10-29T15:05:34Z
2020-10-29T13:07:42Z,42.805,6.029,13.2993,4.60033,2470.1,2020-10-29T15:08:37Z
2020-10-29T13:10:45Z,42.805,6.029,13.2991,4.60016,2470.11,2020-10-29T15:11:40Z
2020-10-29T13:13:48Z,42.805,6.029,13.2999,4.60024,2470.1,2020-10-29T15:14:43Z
2020-10-29T13:16:51Z,42.805,6.029,13.3002,4.60024,2470.124,2020-10-29T15:17:46Z
2020-10-29T13:19:54Z,42.805,6.029,13.2991,4.60021,2470.11,2020-10-29T15:20:50Z
2020-10-29T13:22:57Z,42.805,6.029,13.2995,4.60029,2470.11,2020-10-29T15:23:53Z
2020-10-29T13:26:01Z,42.805,6.029,13.2999,4.60016,2470.11,2020-10-29T15:26:56Z
2020-10-29T13:29:04Z,42.805,6.029,13.2997,4.60004,2470.096,2020-10-29T15:29:59Z
2020-10-29T13:32:07Z,42.805,6.029,13.3001,4.60024,2470.087,2020-10-29T15:33:02Z
2020-10-29T13:35:10Z,42.805,6.029,13.2990,4.60005,2470.11,2020-10-29T15:36:05Z
2020-10-29T13:38:13Z,42.805,6.029,13.2983,4.60003,2470.11,2020-10-29T15:39:08Z
2020-10-29T13:41:16Z,42.805,6.029,13.2986,4.60016,2470.087,2020-10-29T15:42:11Z
2020-10-29T13:44:19Z,42.805,6.029,13.2991,4.60023,2470.171,2020-10-29T15:45:15Z
2020-10-29T13:47:23Z,42.805,6.029,13.2993,4.60015,2470.11,2020-10-29T15:48:18Z
2020-10-29T13:50:26Z,42.805,6.029,13.2992,4.60021,2470.1,2020-10-29T15:51:21Z
2020-10-29T13:53:29Z,42.805,6.029,13.2992,4.60010,2470.11,2020-10-29T15:54:24Z
2020-10-29T13:56:32Z,42.805,6.029,13.2981,4.59995,2470.124,2020-10-29T15:57:27Z
2020-10-29T13:59:35Z,42.805,6.029,13.2980,4.59997,2470.124,2020-10-29T16:00:30Z
2020-10-29T14:02:38Z,42.805,6.029,13.2982,4.59994,2470.11,2020-10-29T16:03:33Z
2020-10-29T14:05:41Z,42.805,6.029,13.2983,4.59992,2470.124,2020-10-29T16:06:36Z
2020-10-29T14:08:44Z,42.805,6.029,13.2999,4.60016,2470.11,2020-10-29T16:09:40Z
2020-10-29T14:11:48Z,42.805,6.029,13.2992,4.60014,2470.133,2020-10-29T16:12:43Z
2020-10-29T14:14:51Z,42.805,6.029,13.2985,4.60026,2470.124,2020-10-29T16:15:46Z
2020-10-29T14:17:54Z,42.805,6.029,13.2979,4.59996,2470.147,2020-10-29T16:18:49Z
2020-10-29T14:20:57Z,42.805,6.029,13.2987,4.60016,2470.11,2020-10-29T16:21:52Z
2020-10-29T14:24:00Z,42.805,6.029,13.2982,4.60005,2470.133,2020-10-29T16:24:55Z
2020-10-29T14:27:03Z,42.805,6.029,13.2992,4.60020,2470.11,2020-10-29T16:27:58Z
2020-10-29T14:30:06Z,42.805,6.029,13.2984,4.60007,2470.147,2020-10-29T16:31:02Z
2020-10-29T14:33:09Z,42.805,6.029,13.2992,4.60016,2470.147,2020-10-29T16:34:05Z
2020-10-29T14:36:13Z,42.805,6.029,13.2990,4.60024,2470.133,2020-10-29T16:37:08Z
2020-10-29T14:39:16Z,42.805,6.029,13.2994,4.60008,2470.11,2020-10-29T16:40:11Z
2020-10-29T14:42:19Z,42.805,6.029,13.2996,4.60016,2470.133,2020-10-29T16:43:14Z
2020-10-29T14:45:22Z,42.805,6.029,13.2998,4.60018,2470.147,2020-10-29T16:46:17Z
2020-10-29T14:48:25Z,42.805,6.029,13.2998,4.60023,2470.147,2020-10-29T16:49:20Z
2020-10-29T14:51:28Z,42.805,6.029,13.2991,4.60018,2470.156,2020-10-29T16:52:23Z
2020-10-29T14:54:31Z,42.805,6.029,13.3009,4.60033,2470.156,2020-10-29T16:55:27Z
2020-10-29T14:57:34Z,42.805,6.029,13.2990,4.60022,2470.133,2020-10-29T16:58:30Z
2020-10-29T15:00:38Z,42.805,6.029,13.2993,4.60008,2470.133,2020-10-29T17:01:33Z